Location: McCall
(45.0000°N, 116.0000°W)
Time: 12:36:54
(UTC-06:00)

Saudisat 1A - Visible Passes

Search period start: 26 August 2016 00:00
Search period end: 05 September 2016 00:00
Orbit: 564 x 630 km, 64.6° (Epoch: 26 August)

Date Brightness Start Highest point End Pass type
(mag) Time Alt. Az. Time Alt. Az. Time Alt. Az.
26 Aug 10.1 00:41:39 10° NNW 00:43:56 26° N 00:43:56 26° N visible
26 Aug 10.3 23:13:18 10° N 23:16:03 15° NNE 23:16:54 15° NE visible
27 Aug 10.3 00:51:45 10° NNW 00:53:33 23° NNW 00:53:33 23° NNW visible
27 Aug 9.9 23:23:04 10° NNW 23:26:33 22° NE 23:26:33 22° NE visible
28 Aug 10.6 01:01:59 10° NW 01:03:12 18° NW 01:03:12 18° NW visible
28 Aug 9.6 23:32:58 10° NNW 23:36:14 29° NNE 23:36:14 29° NNE visible
29 Aug 10.9 01:12:23 10° NW 01:12:52 13° NW 01:12:52 13° NW visible
29 Aug 10.5 22:05:01 10° N 22:06:53 12° NNE 22:08:44 10° NE visible
29 Aug 9.5 23:42:59 10° NNW 23:45:57 35° N 23:45:57 35° N visible
30 Aug 10.1 22:14:32 10° N 22:17:30 17° NNE 22:19:03 14° ENE visible
30 Aug 9.6 23:53:06 10° NW 23:55:42 33° NNW 23:55:42 33° NNW visible
31 Aug 9.6 22:24:21 10° NNW 22:28:02 23° NE 22:28:50 22° NE visible
01 Sep 10.0 00:03:22 10° NW 00:05:29 26° NW 00:05:29 26° NW visible
01 Sep 9.0 22:34:17 10° NNW 22:38:28 35° NE 22:38:39 35° NE visible
02 Sep 10.5 00:13:50 10° NW 00:15:18 19° WNW 00:15:18 19° WNW visible
02 Sep 10.3 21:06:10 10° N 21:08:21 13° NNE 21:10:31 10° ENE visible
02 Sep 8.4 22:44:19 10° NNW 22:48:31 55° NNE 22:48:31 55° NNE visible
03 Sep 10.9 00:24:39 10° WNW 00:25:10 12° WNW 00:25:10 12° WNW visible
03 Sep 10.0 21:15:47 10° N 21:18:56 18° NE 21:21:45 11° ENE visible
03 Sep 8.3 22:54:28 10° NW 22:58:25 67° NW 22:58:25 67° NW visible
04 Sep 9.4 21:25:37 10° NNW 21:29:27 26° NE 21:31:42 18° E visible
04 Sep 9.0 23:04:46 10° NW 23:08:22 44° W 23:08:22 44° W visible
